Location: Katowice
(50.2611°N, 19.0242°E)
Time: 14:42:42
(UTC+02:00)

A-11 Canister half - Pass Details

Date: 22 July 2019
Orbit: 1526 x 1683 km, 47.3° (Epoch: 18 August)

Event Time Altitude Azimuth Distance (km) Brightness Sun altitude
Rises 19:43:01 0° 201° (SSW) 4,919 11.6 7.4°
Reaches altitude 10° 19:46:44 10° 191° (S) 3,925 11.0 6.9°
Maximum altitude 19:54:52 29° 136° (SE) 2,682 9.9 5.7°
Drops below altitude 10° 20:02:51 10° 81° (E) 3,858 10.6 4.5°
Sets 20:06:26 0° 71° (ENE) 4,823 11.2 4.0°
